QPF
0.02 0.02 0.02 0.03 0.04 0.06 0.06 0.05 0.06 0.06 0.07 0.06 0.07 0.09 0.11 0.12 0.13 0.16 0.14 0.11 0.10 0.11 0.10 0.08 0.06 0.05 0.04 0.03 0.03 0.03 0.03 0.04 0.04 0.04 0.05 0.03 0.02 0.02 0.02 0.01 0.01 0.01 0.02
0.02 0.02 0.03 0.04 0.05 0.05 0.05 0.05 0.04 0.04 0.04 0.06 0.06 0.07 0.07 0.10 0.09 0.11 0.14 0.13 0.10 0.09 0.10 0.09 0.07 0.06 0.05 0.05 0.03 0.03 0.03 0.03 0.04 0.05 0.05 0.04 0.03 0.02 0.01 0.03 0.03 0.02 0.02
0.03 0.04 0.05 0.05 0.04 0.04 0.04 0.05 0.06 0.06 0.05 0.07 0.06 0.05 0.05 0.06 0.07 0.06 0.07 0.11 0.12 0.11 0.10 0.10 0.09 0.07 0.05 0.05 0.05 0.05 0.03 0.04 0.04 0.05 0.06 0.05 0.04 0.03 0.02 0.02 0.02 0.02 0.02
0.05 0.05 0.04 0.04 0.04 0.03 0.03 0.04 0.07 0.07 0.06 0.06 0.06 0.06 0.05 0.06 0.07 0.07 0.06 0.07 0.09 0.11 0.10 0.09 0.09 0.08 0.07 0.06 0.06 0.06 0.05 0.05 0.05 0.06 0.05 0.05 0.05 0.05 0.04 0.03 0.01 0.01 0.01
0.08 0.07 0.05 0.04 0.03 0.02 0.02 0.02 0.04 0.05 0.05 0.05 0.05 0.05 0.07 0.07 0.08 0.09 0.08 0.06 0.06 0.07 0.08 0.10 0.09 0.08 0.09 0.09 0.08 0.07 0.06 0.06 0.07 0.07 0.05 0.04 0.04 0.04 0.04 0.05 0.03 0.02 0.02
0.07 0.09 0.07 0.05 0.04 0.03 0.02 0.02 0.02 0.03 0.03 0.03 0.05 0.04 0.05 0.04 0.05 0.09 0.11 0.09 0.07 0.07 0.07 0.07 0.09 0.09 0.09 0.09 0.09 0.08 0.08 0.07 0.07 0.07 0.05 0.04 0.03 0.03 0.04 0.04 0.04 0.03 0.02
0.05 0.08 0.06 0.04 0.04 0.04 0.02 0.02 0.01 0.02 0.03 0.03 0.04 0.04 0.03 0.04 0.04 0.06 0.07 0.09 0.09 0.08 0.08 0.07 0.07 0.08 0.08 0.09 0.10 0.09 0.09 0.08 0.08 0.07 0.05 0.05 0.04 0.04 0.04 0.05 0.05 0.04 0.03
0.03 0.05 0.05 0.05 0.03 0.03 0.02 0.02 0.02 0.02 0.02 0.02 0.03 0.05 0.04 0.02 0.02 0.03 0.05 0.06 0.06 0.07 0.08 0.07 0.07 0.10 0.15 0.15 0.12 0.10 0.09 0.08 0.08 0.07 0.06 0.05 0.05 0.05 0.05 0.05 0.06 0.06 0.04
0.02 0.04 0.05 0.06 0.04 0.02 0.02 0.02 0.02 0.02 0.02 0.03 0.03 0.03 0.03 0.03 0.03 0.04 0.04 0.03 0.03 0.04 0.04 0.04 0.06 0.07 0.11 0.13 0.13 0.13 0.09 0.06 0.06 0.06 0.07 0.07 0.06 0.05 0.04 0.05 0.05 0.05 0.04
0.02 0.03 0.03 0.03 0.03 0.01 0.01 0.02 0.02 0.02 0.02 0.02 0.02 0.02 0.02 0.02 0.03 0.03 0.03 0.04 0.03 0.03 0.03 0.04 0.05 0.06 0.07 0.07 0.09 0.10 0.10 0.09 0.06 0.06 0.07 0.07 0.06 0.05 0.04 0.04 0.04 0.03 0.03
0.01 0.02 0.02 0.02 0.02 0.01 0.01 0.02 0.02 0.02 0.02 0.02 0.02 0.02 0.02 0.03 0.03 0.02 0.02 0.03 0.03 0.03 0.04 0.04 0.06 0.06 0.05 0.05 0.05 0.06 0.06 0.07 0.06 0.05 0.04 0.05 0.06 0.05 0.04 0.05 0.05 0.05 0.05
0.01 0.02 0.01 0.01 0.01 0.02 0.02 0.01 0.01 0.01 0.02 0.03 0.04 0.04 0.04 0.04 0.03 0.03 0.02 0.03 0.03 0.04 0.05 0.05 0.07 0.08 0.07 0.05 0.06 0.06 0.06 0.06 0.05 0.04 0.03 0.03 0.04 0.04 0.03 0.03 0.03 0.03 0.03
0.01 0.01 0.01 0.01 0.01 0.01 0.01 0.01 0.01 0.01 0.02 0.03 0.05 0.05 0.05 0.05 0.05 0.05 0.05 0.05 0.07 0.08 0.09 0.09 0.09 0.09 0.07 0.06 0.06 0.07 0.07 0.06 0.04 0.02 0.02 0.02 0.03 0.03 0.03 0.03 0.02 0.02 0.02
0.01 0.01 0.02 0.01 0.01 0.01 0.01 0.01 0.01 0.01 0.01 0.01 0.02 0.02 0.03 0.04 0.05 0.06 0.05 0.05 0.06 0.07 0.08 0.09 0.09 0.08 0.07 0.06 0.06 0.06 0.06 0.05 0.03 0.02 0.01 0.01 0.02 0.02 0.02 0.02 0.02 0.01 0.02
0.01 0.01 0.01 0.01 0.01 0.01 0.01 0.01 0.01 0.01 0.01 0.01 0.01 0.01 0.01 0.02 0.03 0.04 0.05 0.04 0.04 0.05 0.05 0.06 0.06 0.05 0.05 0.05 0.05 0.05 0.04 0.04 0.03 0.02 0.01 0.01 0.02 0.01 0.01 0.01 0.01 0.01 0.02
0.01 0.01 0.00 0.01 0.02 0.02 0.02 0.03 0.03 0.03 0.02 0.02 0.02 0.01 0.01 0.01 0.02 0.02 0.02 0.03 0.02 0.03 0.04 0.05 0.05 0.04 0.03 0.03 0.03 0.03 0.04 0.03 0.03 0.02 0.02 0.01 0.01 0.01 0.00 0.00 0.00 0.01 0.01
0.01 0.01 0.00 0.01 0.02 0.02 0.02 0.03 0.02 0.02 0.02 0.03 0.03 0.03 0.02 0.02 0.02 0.02 0.02 0.02 0.01 0.01 0.02 0.03 0.03 0.02 0.02 0.02 0.02 0.02 0.02 0.03 0.03 0.02 0.01 0.01 0.01 0.01 0.01 0.01 0.00 0.01 0.00
0.01 0.01 0.01 0.02 0.02 0.02 0.01 0.02 0.01 0.01 0.01 0.02 0.03 0.05 0.04 0.02 0.01 0.01 0.01 0.01 0.01 0.01 0.01 0.02 0.02 0.01 0.01 0.01 0.01 0.01 0.02 0.02 0.02 0.02 0.01 0.01 0.01 0.01 0.01 0.01 0.01 0.01 0.01
0.01 0.02 0.02 0.03 0.02 0.01 0.01 0.02 0.02 0.01 0.01 0.03 0.03 0.03 0.03 0.02 0.01 0.01 0.01 0.01 0.01 0.01 0.02 0.02 0.02 0.01 0.01 0.01 0.01 0.01 0.02 0.02 0.02 0.01 0.01 0.01 0.01 0.01 0.01 0.01 0.01 0.02 0.02
0.02 0.02 0.02 0.03 0.02 0.02 0.01 0.02 0.03 0.02 0.01 0.02 0.03 0.03 0.02 0.02 0.02 0.01 0.01 0.01 0.01 0.01 0.01 0.02 0.02 0.01 0.01 0.01 0.01 0.01 0.01 0.01 0.01 0.01 0.01 0.00 0.00 0.01 0.01 0.01 0.02 0.02 0.02
0.02 0.02 0.03 0.03 0.02 0.03 0.02 0.02 0.03 0.02 0.01 0.02 0.03 0.03 0.03 0.02 0.02 0.01 0.01 0.01 0.01 0.01 0.02 0.02 0.02 0.01 0.01 0.01 0.01 0.01 0.01 0.01 0.01 0.01 0.00 0.00 0.00 0.01 0.01 0.01 0.01 0.02 0.02
0.04 0.03 0.03 0.04 0.04 0.04 0.03 0.03 0.03 0.03 0.02 0.02 0.03 0.04 0.04 0.03 0.02 0.02 0.01 0.01 0.02 0.02 0.02 0.02 0.01 0.01 0.01 0.01 0.00 0.00 0.00 0.00 0.01 0.01 0.01 0.00 0.00 0.01 0.01 0.01 0.01 0.02 0.02
0.04 0.03 0.04 0.05 0.05 0.05 0.04 0.04 0.05 0.03 0.02 0.02 0.03 0.03 0.02 0.02 0.02 0.02 0.01 0.02 0.02 0.02 0.02 0.01 0.01 0.01 0.01 0.01 0.01 0.00 0.00 0.00 0.00 0.01 0.01 0.01 0.01 0.01 0.01 0.02 0.02 0.01 0.02
0.04 0.04 0.04 0.05 0.05 0.05 0.04 0.05 0.04 0.03 0.02 0.02 0.02 0.01 0.01 0.02 0.03 0.03 0.02 0.02 0.02 0.01 0.01 0.01 0.01 0.01 0.01 0.01 0.01 0.00 0.00 0.00 0.00 0.01 0.01 0.01 0.00 0.00 0.01 0.01 0.01 0.01 0.01
0.04 0.03 0.03 0.03 0.03 0.03 0.03 0.03 0.03 0.03 0.03 0.03 0.02 0.01 0.02 0.03 0.04 0.04 0.03 0.02 0.01 0.01 0.01 0.01 0.01 0.01 0.01 0.00 0.01 0.01 0.00 0.00 0.00 0.01 0.01 0.01 0.01 0.01 0.01 0.01 0.01 0.01 0.01
0.04 0.03 0.03 0.03 0.04 0.04 0.03 0.03 0.02 0.03 0.03 0.04 0.03 0.02 0.02 0.02 0.02 0.03 0.03 0.02 0.02 0.01 0.00 0.00 0.00 0.00 0.01 0.00 0.00 0.00 0.00 0.00 0.00 0.00 0.01 0.01 0.01 0.01 0.00 0.01 0.01 0.01 0.01
MSLP
1010.81 1010.49 1010.15 1009.82 1009.54 1009.34 1009.25 1009.27 1009.40 1009.62 1009.92 1010.26 1010.62 1010.98 1011.34 1011.67 1011.99 1012.29 1012.57 1012.83 1013.06 1013.25 1013.40 1013.51 1013.58 1013.64 1013.69 1013.77 1013.88 1014.05 1014.27 1014.54 1014.84 1015.17 1015.48 1015.77 1016.01 1016.20 1016.32 1016.38 1016.39 1016.35 1016.27
1011.01 1010.73 1010.40 1010.04 1009.71 1009.46 1009.33 1009.33 1009.48 1009.76 1010.13 1010.55 1011.00 1011.43 1011.81 1012.16 1012.45 1012.71 1012.93 1013.14 1013.32 1013.49 1013.64 1013.75 1013.85 1013.93 1014.01 1014.09 1014.21 1014.37 1014.57 1014.83 1015.12 1015.42 1015.73 1016.01 1016.26 1016.45 1016.58 1016.65 1016.67 1016.64 1016.57
1011.19 1011.00 1010.71 1010.36 1010.02 1009.73 1009.56 1009.55 1009.70 1010.01 1010.43 1010.91 1011.42 1011.89 1012.31 1012.66 1012.94 1013.16 1013.35 1013.52 1013.68 1013.84 1014.00 1014.14 1014.27 1014.39 1014.50 1014.60 1014.72 1014.86 1015.03 1015.24 1015.48 1015.73 1015.98 1016.22 1016.42 1016.58 1016.69 1016.74 1016.75 1016.72 1016.66
1011.34 1011.27 1011.07 1010.78 1010.45 1010.16 1009.97 1009.93 1010.08 1010.38 1010.82 1011.34 1011.88 1012.39 1012.83 1013.19 1013.46 1013.67 1013.84 1014.00 1014.15 1014.32 1014.50 1014.68 1014.86 1015.02 1015.16 1015.29 1015.41 1015.53 1015.67 1015.81 1015.98 1016.15 1016.32 1016.48 1016.60 1016.69 1016.74 1016.75 1016.72 1016.68 1016.62
1011.47 1011.55 1011.47 1011.26 1010.99 1010.72 1010.52 1010.47 1010.59 1010.88 1011.32 1011.84 1012.39 1012.91 1013.37 1013.74 1014.02 1014.23 1014.40 1014.55 1014.72 1014.90 1015.11 1015.33 1015.56 1015.76 1015.95 1016.10 1016.23 1016.34 1016.45 1016.54 1016.64 1016.73 1016.81 1016.86 1016.89 1016.89 1016.85 1016.78 1016.70 1016.62 1016.54
1011.59 1011.83 1011.89 1011.80 1011.60 1011.38 1011.20 1011.14 1011.24 1011.50 1011.91 1012.41 1012.95 1013.47 1013.93 1014.31 1014.60 1014.82 1015.00 1015.17 1015.35 1015.56 1015.80 1016.05 1016.31 1016.56 1016.78 1016.97 1017.11 1017.23 1017.31 1017.38 1017.42 1017.45 1017.45 1017.41 1017.34 1017.24 1017.11 1016.95 1016.80 1016.65 1016.53
1011.71 1012.10 1012.31 1012.34 1012.25 1012.10 1011.96 1011.91 1011.99 1012.22 1012.58 1013.05 1013.56 1014.06 1014.51 1014.90 1015.20 1015.43 1015.63 1015.81 1016.01 1016.24 1016.49 1016.77 1017.05 1017.33 1017.57 1017.79 1017.96 1018.09 1018.18 1018.24 1018.26 1018.25 1018.20 1018.10 1017.96 1017.77 1017.55 1017.30 1017.06 1016.84 1016.65
1011.82 1012.35 1012.69 1012.86 1012.89 1012.83 1012.75 1012.72 1012.80 1013.01 1013.33 1013.75 1014.21 1014.68 1015.12 1015.49 1015.79 1016.04 1016.25 1016.45 1016.66 1016.89 1017.15 1017.44 1017.72 1018.01 1018.27 1018.50 1018.69 1018.84 1018.96 1019.03 1019.07 1019.05 1018.98 1018.86 1018.67 1018.42 1018.13 1017.81 1017.48 1017.18 1016.91
1011.91 1012.55 1013.02 1013.32 1013.47 1013.52 1013.52 1013.55 1013.64 1013.83 1014.12 1014.49 1014.91 1015.34 1015.74 1016.09 1016.39 1016.64 1016.86 1017.07 1017.28 1017.51 1017.76 1018.03 1018.31 1018.58 1018.83 1019.06 1019.26 1019.44 1019.58 1019.68 1019.74 1019.75 1019.70 1019.58 1019.38 1019.10 1018.77 1018.40 1018.00 1017.62 1017.28
1011.96 1012.68 1013.25 1013.67 1013.94 1014.11 1014.21 1014.31 1014.45 1014.65 1014.93 1015.26 1015.63 1016.01 1016.37 1016.70 1016.99 1017.24 1017.46 1017.67 1017.89 1018.11 1018.34 1018.59 1018.83 1019.07 1019.29 1019.50 1019.69 1019.87 1020.02 1020.15 1020.24 1020.29 1020.26 1020.16 1019.98 1019.71 1019.36 1018.96 1018.53 1018.09 1017.68
1011.93 1012.71 1013.36 1013.87 1014.26 1014.54 1014.77 1014.96 1015.17 1015.41 1015.69 1016.01 1016.35 1016.69 1017.02 1017.32 1017.59 1017.84 1018.06 1018.28 1018.49 1018.71 1018.92 1019.13 1019.33 1019.52 1019.70 1019.87 1020.02 1020.17 1020.32 1020.45 1020.56 1020.62 1020.63 1020.56 1020.40 1020.15 1019.81 1019.40 1018.95 1018.49 1018.03
1011.81 1012.61 1013.31 1013.90 1014.40 1014.80 1015.14 1015.45 1015.75 1016.05 1016.37 1016.70 1017.03 1017.35 1017.66 1017.94 1018.20 1018.44 1018.68 1018.90 1019.12 1019.33 1019.53 1019.71 1019.87 1020.01 1020.13 1020.23 1020.33 1020.43 1020.54 1020.64 1020.73 1020.80 1020.81 1020.76 1020.62 1020.39 1020.08 1019.69 1019.24 1018.77 1018.30
1011.58 1012.38 1013.11 1013.77 1014.34 1014.86 1015.32 1015.75 1016.16 1016.55 1016.93 1017.29 1017.64 1017.96 1018.25 1018.53 1018.79 1019.04 1019.29 1019.53 1019.76 1019.98 1020.18 1020.34 1020.47 1020.56 1020.61 1020.65 1020.67 1020.70 1020.74 1020.79 1020.84 1020.87 1020.87 1020.82 1020.69 1020.48 1020.18 1019.81 1019.39 1018.93 1018.46
1011.24 1012.04 1012.79 1013.48 1014.13 1014.74 1015.32 1015.87 1016.39 1016.88 1017.34 1017.76 1018.14 1018.48 1018.78 1019.07 1019.33 1019.60 1019.86 1020.13 1020.38 1020.62 1020.83 1020.99 1021.09 1021.14 1021.15 1021.12 1021.07 1021.02 1020.98 1020.95 1020.94 1020.92 1020.88 1020.80 1020.67 1020.46 1020.18 1019.83 1019.43 1018.99 1018.54
1010.83 1011.62 1012.38 1013.10 1013.80 1014.49 1015.16 1015.82 1016.45 1017.05 1017.59 1018.08 1018.51 1018.88 1019.21 1019.51 1019.79 1020.07 1020.36 1020.65 1020.93 1021.19 1021.42 1021.59 1021.69 1021.72 1021.69 1021.61 1021.50 1021.37 1021.26 1021.16 1021.07 1021.00 1020.91 1020.79 1020.63 1020.42 1020.14 1019.80 1019.42 1019.01 1018.58
1010.38 1011.19 1011.95 1012.68 1013.42 1014.17 1014.92 1015.66 1016.39 1017.08 1017.70 1018.26 1018.74 1019.16 1019.51 1019.83 1020.13 1020.42 1020.73 1021.03 1021.34 1021.63 1021.87 1022.06 1022.17 1022.20 1022.15 1022.05 1021.90 1021.73 1021.56 1021.40 1021.26 1021.12 1020.99 1020.83 1020.64 1020.41 1020.12 1019.79 1019.41 1019.01 1018.60
1009.96 1010.78 1011.55 1012.30 1013.06 1013.84 1014.65 1015.46 1016.26 1017.02 1017.71 1018.33 1018.87 1019.32 1019.70 1020.03 1020.33 1020.63 1020.94 1021.25 1021.57 1021.87 1022.13 1022.33 1022.46 1022.50 1022.46 1022.36 1022.20 1022.02 1021.82 1021.63 1021.46 1021.29 1021.12 1020.94 1020.72 1020.47 1020.17 1019.82 1019.44 1019.03 1018.61
1009.60 1010.45 1011.23 1012.00 1012.78 1013.58 1014.41 1015.26 1016.11 1016.92 1017.67 1018.33 1018.90 1019.38 1019.77 1020.11 1020.41 1020.70 1021.00 1021.30 1021.60 1021.90 1022.17 1022.38 1022.52 1022.59 1022.57 1022.49 1022.36 1022.19 1022.00 1021.82 1021.64 1021.46 1021.28 1021.09 1020.86 1020.58 1020.26 1019.89 1019.49 1019.06 1018.62
1009.32 1010.21 1011.02 1011.81 1012.59 1013.40 1014.25 1015.12 1015.99 1016.83 1017.61 1018.30 1018.89 1019.38 1019.79 1020.12 1020.40 1020.67 1020.93 1021.20 1021.48 1021.76 1022.01 1022.23 1022.38 1022.47 1022.49 1022.45 1022.35 1022.22 1022.08 1021.92 1021.77 1021.61 1021.43 1021.24 1021.00 1020.71 1020.37 1019.98 1019.54 1019.07 1018.59
1009.11 1010.05 1010.90 1011.70 1012.50 1013.32 1014.17 1015.05 1015.92 1016.77 1017.56 1018.27 1018.87 1019.37 1019.77 1020.08 1020.34 1020.58 1020.80 1021.03 1021.27 1021.51 1021.74 1021.95 1022.11 1022.22 1022.28 1022.28 1022.23 1022.15 1022.05 1021.94 1021.82 1021.68 1021.53 1021.34 1021.10 1020.81 1020.45 1020.03 1019.56 1019.05 1018.51
1008.95 1009.93 1010.82 1011.66 1012.47 1013.30 1014.16 1015.03 1015.91 1016.76 1017.55 1018.26 1018.86 1019.35 1019.74 1020.04 1020.27 1020.47 1020.65 1020.84 1021.03 1021.24 1021.45 1021.64 1021.81 1021.94 1022.02 1022.06 1022.06 1022.03 1021.97 1021.90 1021.80 1021.69 1021.55 1021.36 1021.12 1020.82 1020.45 1020.01 1019.51 1018.96 1018.39
1008.80 1009.82 1010.75 1011.62 1012.46 1013.30 1014.16 1015.04 1015.91 1016.75 1017.54 1018.25 1018.85 1019.33 1019.71 1019.99 1020.20 1020.37 1020.52 1020.67 1020.83 1021.01 1021.19 1021.38 1021.55 1021.69 1021.80 1021.87 1021.90 1021.90 1021.87 1021.82 1021.74 1021.63 1021.49 1021.30 1021.05 1020.74 1020.35 1019.90 1019.39 1018.82 1018.22
1008.62 1009.68 1010.64 1011.54 1012.41 1013.27 1014.14 1015.02 1015.89 1016.74 1017.52 1018.21 1018.81 1019.29 1019.66 1019.93 1020.13 1020.28 1020.41 1020.53 1020.68 1020.84 1021.01 1021.20 1021.37 1021.53 1021.66 1021.75 1021.81 1021.82 1021.80 1021.74 1021.65 1021.52 1021.35 1021.14 1020.88 1020.55 1020.16 1019.71 1019.20 1018.64 1018.04
1008.41 1009.48 1010.47 1011.40 1012.30 1013.18 1014.07 1014.96 1015.83 1016.67 1017.44 1018.13 1018.72 1019.19 1019.55 1019.82 1020.01 1020.15 1020.28 1020.40 1020.54 1020.70 1020.89 1021.08 1021.28 1021.46 1021.61 1021.71 1021.78 1021.79 1021.75 1021.67 1021.54 1021.37 1021.17 1020.92 1020.63 1020.29 1019.90 1019.46 1018.98 1018.45 1017.88
1008.17 1009.24 1010.25 1011.20 1012.12 1013.02 1013.93 1014.82 1015.69 1016.52 1017.29 1017.97 1018.54 1019.00 1019.36 1019.62 1019.81 1019.95 1020.08 1020.21 1020.37 1020.55 1020.76 1020.99 1021.21 1021.42 1021.59 1021.71 1021.77 1021.78 1021.71 1021.59 1021.42 1021.20 1020.95 1020.66 1020.34 1019.99 1019.61 1019.20 1018.76 1018.28 1017.78
1007.94 1008.99 1009.99 1010.95 1011.88 1012.80 1013.71 1014.61 1015.48 1016.30 1017.05 1017.71 1018.26 1018.71 1019.05 1019.30 1019.49 1019.64 1019.78 1019.93 1020.11 1020.32 1020.56 1020.82 1021.08 1021.32 1021.52 1021.66 1021.73 1021.73 1021.64 1021.49 1021.27 1021.01 1020.71 1020.38 1020.04 1019.69 1019.33 1018.96 1018.57 1018.17 1017.75
Thickness
5741 5739 5738 5736 5733 5729 5726 5723 5721 5719 5718 5717 5716 5714 5714 5714 5714 5714 5711 5710 5710 5709 5708 5709 5706 5705 5704 5702 5701 5700 5698 5697 5697 5695 5693 5694 5694 5693 5691 5690 5689 5688 5687
5736 5734 5732 5731 5728 5725 5723 5719 5717 5716 5714 5714 5713 5712 5711 5711 5711 5710 5707 5707 5706 5705 5705 5704 5704 5702 5700 5698 5696 5695 5694 5693 5692 5689 5686 5685 5686 5686 5688 5685 5684 5683 5683
5732 5730 5728 5727 5725 5723 5721 5719 5715 5714 5712 5711 5710 5708 5707 5706 5706 5705 5704 5703 5702 5701 5700 5699 5698 5698 5697 5695 5692 5691 5689 5687 5687 5686 5683 5680 5680 5681 5682 5680 5679 5678 5677
5732 5729 5726 5724 5723 5721 5718 5716 5713 5711 5709 5708 5708 5706 5704 5702 5702 5702 5701 5699 5698 5697 5696 5694 5693 5693 5693 5691 5690 5689 5686 5683 5682 5681 5680 5680 5680 5674 5674 5676 5676 5674 5672
5731 5727 5727 5725 5722 5720 5717 5714 5711 5709 5707 5706 5705 5702 5702 5701 5701 5699 5697 5696 5695 5694 5693 5692 5690 5689 5688 5687 5685 5683 5681 5680 5678 5677 5676 5675 5674 5673 5671 5670 5670 5671 5671
5728 5727 5726 5724 5721 5719 5716 5713 5708 5706 5705 5704 5702 5700 5698 5698 5697 5695 5694 5693 5693 5691 5690 5689 5687 5685 5685 5683 5681 5679 5678 5676 5674 5673 5673 5672 5671 5670 5669 5667 5666 5666 5667
5725 5722 5721 5721 5718 5715 5712 5710 5707 5704 5703 5701 5700 5698 5696 5695 5693 5692 5692 5691 5690 5689 5688 5687 5684 5682 5680 5679 5677 5676 5674 5672 5670 5669 5669 5670 5670 5670 5668 5665 5664 5662 5664
5723 5720 5718 5717 5715 5713 5710 5708 5705 5703 5701 5699 5697 5696 5694 5694 5693 5691 5690 5689 5688 5687 5685 5683 5681 5679 5677 5676 5674 5674 5672 5669 5667 5666 5665 5665 5666 5666 5664 5661 5659 5658 5659
5720 5717 5715 5713 5712 5710 5707 5706 5703 5700 5699 5697 5695 5693 5692 5690 5689 5687 5687 5687 5685 5684 5682 5680 5678 5676 5674 5672 5670 5669 5668 5666 5665 5663 5661 5661 5661 5660 5659 5658 5656 5652 5652
5717 5715 5713 5711 5709 5707 5705 5703 5701 5698 5696 5694 5692 5691 5689 5687 5685 5684 5683 5683 5682 5680 5679 5677 5675 5673 5671 5669 5667 5666 5664 5661 5660 5658 5656 5655 5656 5654 5654 5653 5652 5650 5647
5715 5712 5710 5709 5707 5705 5702 5699 5698 5695 5693 5692 5690 5688 5686 5684 5682 5681 5681 5679 5678 5677 5675 5673 5671 5670 5669 5666 5664 5662 5660 5658 5656 5654 5653 5651 5650 5649 5649 5649 5648 5645 5643
5714 5711 5707 5705 5703 5701 5699 5697 5695 5692 5691 5690 5687 5685 5683 5681 5679 5678 5677 5676 5674 5673 5671 5669 5668 5666 5665 5662 5660 5657 5656 5654 5652 5651 5649 5647 5646 5644 5644 5643 5642 5641 5638
5710 5707 5705 5702 5699 5698 5696 5694 5692 5690 5689 5687 5684 5682 5680 5677 5676 5674 5673 5671 5670 5668 5667 5666 5664 5662 5660 5658 5656 5654 5652 5651 5649 5647 5645 5643 5641 5640 5640 5638 5638 5637 5636
5707 5704 5701 5698 5697 5695 5693 5691 5690 5688 5686 5684 5682 5679 5676 5674 5672 5671 5669 5667 5665 5664 5663 5662 5660 5658 5656 5655 5653 5650 5648 5647 5646 5644 5642 5640 5638 5636 5635 5634 5632 5632 5630
5702 5699 5697 5695 5693 5691 5689 5688 5687 5685 5683 5680 5678 5676 5673 5671 5669 5667 5665 5663 5661 5661 5659 5657 5655 5653 5652 5650 5647 5645 5644 5642 5641 5639 5638 5637 5634 5631 5629 5630 5628 5627 5626
5698 5696 5694 5691 5689 5687 5686 5684 5683 5681 5679 5676 5674 5672 5669 5667 5665 5663 5661 5659 5657 5656 5655 5653 5652 5649 5648 5642 5638 5637 5638 5637 5636 5634 5633 5632 5629 5627 5623 5621 5620 5619 5619
5694 5692 5690 5687 5685 5683 5682 5680 5678 5677 5675 5672 5670 5668 5665 5663 5661 5660 5658 5655 5654 5653 5651 5650 5648 5645 5641 5636 5633 5631 5631 5632 5631 5629 5628 5629 5628 5624 5622 5619 5615 5614 5612
5690 5687 5685 5683 5681 5680 5678 5676 5675 5673 5670 5668 5666 5664 5661 5659 5658 5656 5654 5652 5651 5649 5648 5646 5644 5641 5637 5631 5628 5626 5627 5628 5626 5625 5624 5622 5621 5620 5617 5617 5616 5614 5612
5685 5683 5681 5679 5678 5676 5674 5672 5670 5668 5666 5664 5662 5660 5659 5656 5654 5652 5650 5648 5646 5645 5644 5642 5640 5637 5633 5627 5625 5622 5625 5625 5623 5622 5621 5619 5617 5613 5610 5611 5612 5611 5610
5679 5677 5676 5675 5672 5670 5669 5666 5664 5663 5661 5660 5658 5657 5655 5652 5650 5648 5646 5644 5642 5641 5641 5639 5637 5634 5631 5625 5621 5618 5624 5622 5621 5620 5618 5614 5611 5607 5605 5607 5607 5606 5606
5673 5671 5670 5668 5666 5665 5663 5661 5660 5658 5658 5657 5654 5652 5650 5648 5646 5644 5641 5640 5639 5637 5636 5634 5633 5631 5628 5623 5619 5616 5619 5620 5619 5619 5618 5615 5607 5603 5601 5600 5602 5601 5599
5665 5664 5662 5661 5660 5659 5658 5656 5655 5655 5653 5651 5649 5647 5645 5644 5643 5640 5638 5636 5634 5633 5632 5630 5629 5629 5627 5623 5618 5614 5612 5612 5614 5615 5615 5612 5604 5600 5598 5597 5597 5594 5591
5658 5657 5656 5655 5655 5654 5653 5651 5651 5650 5648 5646 5644 5642 5641 5639 5638 5636 5635 5634 5632 5632 5632 5630 5629 5629 5627 5622 5616 5611 5609 5607 5608 5611 5608 5604 5600 5598 5597 5594 5592 5590 5592
5652 5651 5650 5650 5649 5648 5648 5647 5646 5645 5643 5641 5640 5639 5638 5636 5635 5633 5633 5632 5632 5631 5630 5629 5628 5626 5624 5622 5617 5614 5610 5605 5606 5606 5604 5600 5598 5596 5595 5595 5594 5593 5592
5646 5645 5644 5645 5645 5644 5643 5643 5642 5641 5638 5637 5636 5636 5635 5634 5632 5631 5630 5630 5630 5629 5625 5626 5625 5623 5622 5618 5610 5608 5609 5607 5606 5603 5604 5604 5603 5602 5601 5600 5598 5595 5592
5640 5639 5639 5640 5640 5640 5639 5639 5638 5637 5634 5633 5633 5633 5633 5632 5631 5630 5628 5624 5623 5621 5618 5616 5616 5618 5613 5608 5605 5602 5600 5598 5596 5597 5602 5603 5602 5601 5600 5599 5597 5595 5592